Wind_Speed
3 3 2 1 1 2 2 2 2 3 3 4 4 5 5 5 5 5 5 5 5 5 5 6 6 6 6 6 7 8 8 11 12 10 10 11 11 12 13 14 13 12 14 15 17 18 18 20 22 25 28 30 31 33 33 32 31 32 33 32 30 29 28 28 28 28 27 25 25 26 25 25 23 22
2 2 1 0 0 0 1 2 2 3 4 4 5 5 5 5 6 6 6 6 7 8 7 8 7 8 8 7 8 9 10 13 14 11 12 12 12 15 15 16 16 15 15 15 15 15 16 17 19 21 25 28 30 32 34 34 34 34 35 35 34 32 30 29 29 30 29 28 27 27 27 27 25 24
2 2 1 0 0 1 2 3 3 3 4 4 5 6 6 6 7 8 8 7 7 8 8 8 9 10 11 11 12 12 12 14 15 13 12 13 15 17 17 17 18 17 17 17 16 16 16 16 17 19 21 24 27 30 33 35 36 36 36 37 37 36 34 32 31 31 31 30 30 30 29 28 27 26
2 2 1 1 1 2 3 4 4 4 5 5 6 6 7 7 7 9 10 9 8 10 10 12 13 13 13 13 13 14 13 14 15 14 14 15 16 17 16 16 17 16 17 18 18 17 17 17 18 18 20 21 23 26 29 33 36 37 38 39 40 39 37 35 34 33 32 33 33 33 31 29 28 26
3 2 2 2 2 3 4 5 5 6 6 6 7 7 7 8 8 9 11 11 11 11 11 12 12 12 13 13 13 13 14 13 14 15 15 15 16 16 15 16 16 15 15 16 17 19 19 19 19 19 20 21 22 24 25 28 32 36 38 40 41 42 41 39 38 36 34 35 35 35 34 32 29 27
4 3 2 2 2 3 4 5 6 6 6 7 8 8 8 9 9 9 11 12 12 12 12 12 12 12 12 13 13 12 14 14 14 15 16 15 15 15 15 15 15 15 15 15 17 20 20 20 20 20 21 22 23 24 25 26 28 32 36 40 42 43 44 43 41 39 37 37 37 36 37 36 32 29
4 3 3 3 3 3 4 5 6 6 7 8 8 9 9 10 11 11 11 13 14 14 14 13 13 12 12 13 13 13 13 14 15 16 16 16 15 15 15 16 16 17 17 17 18 20 21 21 22 22 22 23 23 24 24 26 27 30 33 37 41 43 45 46 45 43 40 39 39 39 39 38 36 33
4 3 3 3 3 4 5 5 6 6 6 7 8 9 10 10 11 11 12 13 14 14 14 13 13 13 13 14 14 13 13 13 14 15 16 15 15 15 15 16 16 18 19 19 19 21 22 22 22 22 23 23 24 24 24 25 27 29 31 34 38 42 45 47 48 47 44 41 41 41 42 41 40 38
4 4 4 4 4 4 5 5 6 6 7 8 9 10 10 11 11 11 12 13 14 15 16 15 14 13 14 15 14 13 14 14 14 14 14 14 15 16 16 16 16 18 20 22 22 22 21 20 20 21 23 24 24 25 25 26 26 27 30 32 36 40 44 48 49 49 47 45 44 44 44 44 43 41
4 4 5 5 5 5 6 6 7 7 8 9 10 11 11 12 12 13 13 14 15 16 17 17 15 14 14 15 15 14 14 14 14 14 14 14 14 14 15 15 15 16 17 18 19 18 17 16 17 18 20 23 24 25 26 27 27 27 28 31 33 36 41 46 49 50 50 49 47 46 46 46 45 43
5 5 5 5 6 6 6 7 7 8 9 10 11 12 12 12 12 13 14 15 16 17 17 17 16 15 15 14 14 13 12 13 14 14 14 13 11 10 11 12 13 13 14 15 17 19 19 19 21 22 22 22 24 26 26 27 27 28 29 30 31 33 37 43 48 50 52 52 50 48 47 47 46 45
5 5 6 6 7 6 7 8 9 10 11 11 12 12 12 13 13 14 14 14 15 16 17 17 16 16 15 14 14 13 12 13 12 11 11 12 12 11 12 13 14 15 15 16 16 18 18 20 23 24 23 23 23 24 26 27 28 29 30 30 30 31 34 38 44 49 52 52 52 50 49 48 48 47
6 6 7 7 8 10 12 13 14 14 15 15 15 14 13 14 14 15 15 15 16 16 16 17 16 16 15 15 14 13 12 12 11 10 11 13 14 14 14 15 15 16 16 16 16 16 17 17 18 19 19 19 20 20 22 25 28 29 30 31 30 31 32 35 40 45 50 52 53 52 51 52 50 48
6 7 8 9 11 14 17 17 16 15 16 17 18 18 17 16 15 15 16 16 17 17 17 17 17 16 16 15 15 15 14 13 13 13 13 14 14 14 14 14 14 14 14 15 16 17 16 16 17 17 17 17 18 18 19 22 25 27 28 30 32 32 32 34 37 41 46 50 53 53 54 54 52 49
7 8 9 10 11 13 15 15 15 16 17 18 19 19 20 20 20 19 18 18 17 18 19 19 18 18 18 17 16 16 16 15 15 14 14 14 14 13 13 12 11 9 10 13 16 16 15 15 17 18 17 17 17 18 18 19 20 21 21 24 28 30 31 32 34 37 42 47 51 54 55 56 54 52
7 8 9 10 11 12 13 15 15 16 18 18 18 19 19 20 22 23 24 23 21 20 20 20 20 20 19 18 17 16 16 16 16 15 15 15 15 15 14 14 13 11 10 13 16 17 15 14 17 18 19 18 17 18 21 21 21 21 19 19 22 25 28 31 32 35 39 43 49 52 54 56 55 54
8 9 10 11 12 12 13 15 15 15 15 16 17 18 18 20 22 23 24 25 26 25 24 23 23 21 20 19 18 16 16 17 18 17 17 16 16 17 17 16 16 14 12 13 16 19 17 15 17 19 18 18 17 19 21 21 20 21 20 18 19 21 23 26 29 32 36 40 44 49 52 54 55 54
9 10 11 12 13 13 13 13 13 13 13 14 15 15 17 19 20 21 22 23 25 27 28 28 28 25 23 23 22 19 19 21 22 22 21 20 20 21 21 21 21 19 17 16 17 19 18 16 17 19 18 17 18 19 21 21 19 19 19 17 18 18 19 21 24 28 33 36 40 45 49 51 52 50
9 10 11 12 13 14 14 14 15 15 14 14 15 15 16 17 18 19 20 21 23 25 27 28 28 27 26 25 25 23 21 22 22 22 23 24 24 25 25 25 25 23 21 19 18 19 18 16 18 19 17 17 18 18 19 20 19 20 19 17 17 17 17 18 20 22 27 31 35 40 45 48 48 47
10 11 11 12 13 14 14 15 16 17 16 15 16 17 18 18 18 19 19 21 24 27 28 29 28 28 27 26 26 25 22 22 20 20 21 22 23 25 25 24 24 22 20 20 21 20 19 17 18 19 17 17 18 17 16 16 17 21 20 15 14 16 16 17 17 19 21 26 31 36 41 44 45 45
11 11 12 12 13 14 14 14 15 16 15 15 16 18 19 20 20 21 20 21 24 26 29 31 33 34 34 33 33 31 30 29 27 24 23 22 21 23 22 21 22 22 19 19 20 21 21 18 17 18 17 16 18 17 16 15 17 21 20 15 13 14 15 16 16 16 18 22 27 32 38 41 42 43
11 12 14 15 15 15 14 15 16 16 16 16 18 20 21 23 23 22 21 22 23 24 25 27 29 32 34 34 35 36 35 35 33 30 29 26 25 26 24 21 22 22 21 20 19 21 22 19 17 18 16 16 18 18 16 15 16 18 17 15 14 14 14 14 14 14 15 18 23 29 34 38 39 40
12 13 15 16 17 16 15 15 17 17 17 17 19 21 22 24 24 23 22 23 24 24 24 25 24 25 26 27 29 30 31 32 32 32 32 30 30 31 29 25 20 17 17 18 18 20 21 18 18 18 14 11 13 16 17 14 11 11 11 10 12 14 14 13 12 11 12 16 21 27 32 35 37 38
14 15 15 15 15 14 13 14 17 19 20 21 21 22 23 24 24 23 23 24 24 24 25 25 24 25 24 24 25 25 26 27 28 30 30 31 33 33 31 28 23 19 18 16 16 19 21 20 19 20 17 13 10 13 15 11 5 6 8 8 11 13 13 12 10 9 11 15 20 26 31 34 36 37
15 15 15 14 14 14 15 17 20 22 24 24 24 24 25 26 26 25 25 26 25 25 26 26 26 26 25 25 25 25 25 26 27 28 28 29 31 33 31 29 27 26 24 21 18 19 20 19 19 19 20 19 16 14 13 11 6 5 5 6 8 11 12 11 10 10 11 15 20 25 30 33 35 36
16 16 16 14 15 17 19 21 23 24 27 28 27 27 28 29 30 30 29 28 27 27 26 26 26 26 25 25 25 25 25 25 25 26 27 28 30 32 32 30 29 28 25 22 21 22 21 20 19 18 18 20 19 17 15 12 8 5 4 4 6 8 10 12 13 14 16 19 22 25 29 32 33 34
16 16 15 15 17 20 22 24 25 27 28 28 28 28 29 30 30 30 29 28 27 27 26 26 26 25 24 25 25 25 25 25 25 25 26 27 27 29 30 31 31 31 28 24 23 25 25 24 22 20 19 19 17 15 16 13 9 7 6 5 5 7 10 12 15 19 21 22 24 27 29 29 28 29
15 16 17 19 22 25 26 26 27 27 27 27 26 26 27 27 28 27 26 26 26 25 25 26 26 26 25 25 25 25 24 24 24 25 25 25 26 27 28 29 29 31 31 29 27 26 27 26 24 22 20 21 18 15 16 15 11 10 10 8 7 8 10 12 15 19 22 23 27 29 30 28 25 24
15 18 21 23 25 25 26 25 25 25 24 23 23 23 24 24 24 23 24 24 24 24 25 25 26 26 26 26 25 25 24 24 24 24 25 25 25 25 26 27 28 28 29 29 28 28 28 27 26 23 21 22 21 18 16 15 13 14 13 11 9 9 11 13 14 17 19 21 25 27 27 28 28 25
18 20 21 22 23 23 23 22 22 22 22 22 22 22 23 22 22 21 21 22 22 24 24 24 25 25 24 24 25 24 24 25 25 24 25 25 24 24 24 24 25 26 27 27 28 28 28 28 27 25 23 22 22 20 17 15 12 14 15 13 12 11 11 12 13 15 17 18 21 22 23 27 29 25
17 19 20 21 21 21 20 20 20 21 22 22 22 21 20 20 20 20 21 22 23 24 24 24 25 24 23 23 24 24 24 25 24 24 24 24 24 23 22 21 22 23 24 26 27 28 29 28 26 26 24 23 22 20 19 17 10 12 15 14 14 13 14 15 15 15 17 19 20 20 20 24 27 24
18 18 19 19 19 18 18 18 18 19 19 19 19 19 19 19 20 21 22 23 25 25 26 26 26 25 24 24 23 23 23 24 24 23 23 24 24 22 20 19 19 20 21 23 24 26 28 28 27 26 25 24 22 20 19 17 11 13 14 13 12 12 15 18 17 16 19 20 20 20 19 21 23 22
17 16 16 16 16 16 17 17 17 18 18 18 19 19 19 19 20 20 21 22 23 24 25 26 26 25 24 24 23 23 24 24 23 23 24 24 23 21 20 19 19 19 19 20 21 23 25 27 28 27 25 25 23 20 19 16 12 13 13 13 13 12 14 18 18 19 22 23 23 22 20 20 20 20
14 14 15 15 15 16 16 17 17 18 18 19 19 19 19 19 20 20 21 21 22 23 23 24 24 24 24 23 23 23 24 25 24 24 25 25 23 22 22 20 20 20 21 20 20 21 22 24 26 25 25 26 25 23 23 19 12 13 13 13 14 15 15 16 17 19 22 24 25 24 21 20 20 19
12 13 14 14 15 15 16 17 17 18 19 19 19 20 20 20 20 21 21 21 22 23 23 23 23 23 24 24 23 23 24 24 24 25 26 26 26 27 27 25 23 22 22 21 21 20 20 20 22 22 22 23 22 21 24 23 15 14 15 12 12 15 16 16 17 20 21 22 24 24 22 20 19 18
13 13 14 15 15 15 16 17 17 18 19 19 20 20 20 20 20 21 22 22 23 23 23 23 23 23 24 24 24 24 24 23 24 24 25 26 28 29 30 30 28 24 23 23 22 21 19 19 20 19 16 13 13 13 16 19 19 18 17 15 13 14 17 19 20 22 23 22 23 23 21 20 20 19
13 13 14 14 15 16 17 17 18 18 19 19 20 21 21 21 21 21 22 23 24 24 24 24 24 24 23 24 24 24 24 23 23 22 22 24 26 27 27 27 26 23 23 24 23 22 21 20 20 19 13 8 8 9 7 9 16 20 21 18 16 16 20 23 23 22 23 23 22 22 21 21 21 19
14 14 15 15 15 16 18 18 19 19 19 20 21 21 21 21 22 22 22 23 23 23 23 23 23 23 23 23 23 23 23 22 21 21 21 21 22 23 23 23 22 20 21 23 23 23 24 22 21 20 15 8 7 7 5 7 12 16 21 22 21 21 24 25 23 22 23 23 22 23 23 22 19 18
14 15 15 16 16 17 18 19 19 20 20 21 21 22 22 22 23 23 23 23 23 23 23 22 23 23 23 23 23 22 22 21 21 20 20 20 20 20 20 20 19 18 18 19 20 22 24 24 23 22 19 13 10 9 9 11 11 13 17 22 25 26 27 26 24 24 24 25 26 27 25 22 20 21
15 15 16 16 17 18 19 19 20 20 21 22 22 22 22 23 23 23 23 23 23 24 23 24 24 24 24 23 23 22 23 23 22 21 20 19 19 20 19 18 17 17 16 16 17 19 22 24 24 23 21 18 16 13 14 16 12 12 17 20 24 28 30 29 29 28 27 29 33 31 27 25 23 23
16 16 16 17 17 18 19 20 21 21 21 22 22 22 23 23 23 24 25 25 27 27 27 26 26 25 25 25 25 24 23 22 21 20 19 19 18 19 19 18 16 16 15 15 15 17 20 22 23 23 22 19 17 15 15 13 11 12 16 18 19 24 27 29 32 32 32 35 37 31 25 23 23 20
16 17 17 17 18 19 20 21 21 21 21 22 22 23 24 24 24 25 25 26 27 27 25 24 24 23 24 24 23 23 22 20 18 17 18 18 17 16 17 17 17 15 15 14 14 14 16 18 20 21 21 21 21 17 10 9 12 15 18 19 19 20 22 24 28 31 34 37 37 31 26 23 20 16
17 17 18 18 18 19 20 21 22 22 22 22 23 24 24 24 24 24 24 23 23 23 23 23 23 22 22 21 20 19 18 17 16 16 16 16 16 14 14 15 16 16 14 12 11 12 14 16 18 21 21 23 23 18 12 14 19 20 22 25 27 26 26 27 28 30 31 32 32 30 28 24 18 15
18 18 18 18 19 20 21 22 22 22 23 23 24 24 24 24 24 24 23 23 23 22 23 23 22 21 20 18 15 13 14 14 14 14 14 14 15 15 14 14 14 13 13 11 10 11 13 15 19 23 22 20 21 22 21 20 21 21 24 29 32 31 31 32 31 31 30 27 24 24 22 19 16 17
18 18 18 19 19 20 21 21 21 22 23 24 24 24 24 25 25 24 24 23 23 22 23 23 21 19 18 14 11 10 11 11 11 12 12 12 13 14 13 12 11 11 11 11 10 10 12 14 17 20 19 19 23 27 27 25 24 25 28 32 33 31 32 33 33 33 30 25 20 18 18 17 19 22
Wind_Direction
114 99 82 86 75 32 3 344 337 327 308 295 280 269 272 282 291 297 294 295 292 289 291 288 283 282 282 280 281 284 281 277 284 291 288 289 288 279 275 270 264 259 253 251 252 252 247 243 240 237 235 233 231 231 233 235 235 233 231 231 233 230 225 222 221 220 218 215 217 218 216 216 215 211
127 123 107 96 115 20 340 316 313 313 306 300 290 280 274 268 271 283 290 291 290 289 286 280 280 285 288 289 289 286 281 282 287 288 283 285 281 274 273 270 268 266 257 250 250 251 249 249 247 242 239 237 235 233 232 233 235 235 233 232 233 230 227 225 224 223 221 217 218 220 218 218 216 212
148 148 164 273 280 305 302 283 278 289 290 292 291 285 279 270 267 272 277 280 282 283 286 286 288 290 289 288 287 285 282 279 281 285 283 279 275 273 273 272 275 274 265 256 252 252 254 254 254 250 246 242 240 237 234 232 233 234 234 235 234 230 228 227 225 224 223 219 218 220 221 221 218 213
175 178 211 259 274 296 297 284 275 275 273 275 280 280 277 273 268 268 271 273 277 281 286 287 288 289 287 286 284 284 284 280 281 283 279 276 278 277 274 274 277 274 268 264 260 258 257 255 254 253 252 249 246 243 239 235 234 234 235 237 236 232 229 228 226 224 225 221 218 220 222 224 223 216
179 191 229 256 263 283 293 289 281 276 268 265 267 266 267 268 265 265 270 276 281 283 284 285 286 288 288 285 283 283 285 283 283 283 279 277 277 274 270 268 269 270 269 266 265 263 260 256 254 252 252 252 251 249 246 242 238 236 235 236 236 234 232 230 227 226 225 222 219 220 223 225 225 217
184 198 231 256 264 273 281 283 282 280 273 269 268 264 264 268 267 264 268 276 283 286 287 287 286 286 284 282 281 281 282 284 285 284 281 279 276 272 268 264 264 266 265 262 262 263 260 257 254 251 250 250 250 250 249 247 244 240 237 236 236 235 233 232 230 227 225 221 219 221 223 225 226 221
197 210 239 264 272 274 279 281 281 281 275 273 274 271 267 268 268 266 267 272 279 284 286 286 286 286 283 281 281 280 278 279 283 284 283 281 276 271 266 263 263 264 263 260 259 261 262 260 256 253 250 248 247 248 248 247 246 243 240 238 237 236 235 234 232 228 224 222 220 220 222 225 227 225
216 229 251 269 277 281 285 285 282 281 278 278 279 278 274 269 267 265 263 266 271 278 282 281 282 284 283 281 280 280 279 277 278 281 284 284 281 276 270 265 262 259 258 257 258 264 268 265 259 254 251 249 247 246 247 246 245 243 242 240 238 237 236 235 233 229 225 223 221 219 221 224 227 227
230 245 261 273 280 283 284 284 285 284 284 284 281 279 278 276 275 271 267 267 270 274 278 279 279 279 279 279 279 279 280 280 280 278 280 282 283 282 277 271 266 262 259 258 260 266 271 270 266 260 254 250 247 245 244 245 244 243 242 241 239 237 237 236 234 230 227 225 222 219 220 223 226 228
231 251 266 272 275 277 279 280 282 284 284 282 279 279 279 278 278 276 273 272 272 272 274 277 278 276 274 275 277 276 276 279 283 284 283 282 279 278 276 274 270 266 263 260 258 260 265 270 273 269 260 253 249 246 244 243 243 243 242 241 239 237 237 236 235 232 231 228 223 220 220 222 224 226
231 250 259 263 265 270 274 277 281 285 284 281 278 276 276 275 275 274 272 272 272 273 275 276 277 277 275 273 273 275 275 275 277 280 283 284 282 279 280 280 277 273 270 265 260 258 258 257 260 264 267 262 254 250 248 246 244 244 244 243 241 239 237 237 236 235 233 229 224 221 221 222 223 225
231 246 253 260 264 264 266 272 277 278 278 278 278 276 275 273 272 272 272 271 270 271 273 274 275 276 276 274 274 275 274 273 274 276 280 286 289 288 285 283 280 277 274 270 266 264 260 254 252 256 262 264 261 256 253 250 247 245 245 244 243 242 238 236 236 236 234 231 226 222 222 223 223 223
236 250 259 262 260 262 271 279 280 275 269 266 267 270 273 273 272 271 270 270 270 270 270 271 272 273 272 273 275 275 274 275 281 284 284 284 285 285 282 279 276 274 272 270 267 263 257 252 250 247 248 256 262 262 259 255 250 246 245 244 243 243 241 238 236 236 235 232 226 224 225 225 223 222
248 258 264 266 268 274 284 290 289 282 274 267 262 261 262 264 267 271 270 268 268 269 270 270 271 270 270 270 272 273 275 277 281 281 280 279 280 282 281 279 276 271 269 269 269 265 257 253 251 247 242 244 249 255 258 258 254 250 248 246 243 242 242 240 237 235 235 233 229 226 226 226 225 224
261 268 271 275 276 278 283 287 289 287 282 277 272 266 262 258 257 259 263 266 267 268 269 269 269 268 269 269 269 271 273 274 274 275 275 276 279 278 277 279 278 272 273 276 274 270 263 257 255 253 247 241 239 243 249 252 255 257 256 252 248 244 242 242 239 236 235 235 231 228 227 226 225 224
271 279 281 282 280 277 275 278 282 282 279 279 277 274 271 265 258 254 254 256 260 263 267 268 266 265 268 270 268 267 271 274 275 275 274 273 276 275 272 272 271 271 282 286 279 274 270 265 262 259 252 246 242 244 246 246 249 254 255 253 251 248 245 243 240 236 235 236 234 230 227 225 224 223
276 282 286 285 282 279 276 276 276 274 276 279 280 278 275 269 265 261 257 254 254 256 261 265 265 263 267 269 268 266 270 275 277 277 274 273 273 272 270 269 269 270 276 280 277 273 269 268 268 263 256 251 246 244 247 248 250 252 250 248 248 248 248 246 242 237 235 236 236 232 228 225 224 222
274 279 282 282 282 281 278 276 274 274 279 281 280 278 273 267 267 267 264 260 257 254 254 256 259 261 263 266 268 269 269 270 271 272 272 272 272 271 271 272 273 271 268 268 272 270 266 262 264 263 259 255 249 246 247 249 253 258 256 249 244 245 248 249 244 239 237 237 237 234 230 226 223 220
269 273 274 275 280 281 278 275 271 273 280 283 280 277 273 270 269 267 263 259 257 254 251 251 255 259 260 261 264 265 266 268 271 274 273 270 269 271 272 272 270 266 260 255 256 262 262 257 257 259 257 255 253 247 243 242 249 259 262 255 244 240 242 246 246 243 240 240 239 234 229 225 221 217
265 269 268 271 278 280 279 277 273 273 277 282 282 280 277 275 272 268 266 262 258 257 256 257 259 259 258 256 256 256 258 264 274 284 281 271 266 266 266 266 264 261 256 246 243 253 259 254 253 256 253 252 255 248 239 241 251 259 262 260 247 237 235 241 245 246 244 241 239 233 227 223 219 215
265 264 262 269 279 281 280 276 273 274 277 281 283 283 281 280 276 272 271 269 266 265 265 264 262 261 260 259 258 257 257 259 267 277 274 265 261 262 261 262 262 259 254 243 238 248 256 251 251 256 252 248 249 246 241 247 257 260 262 264 254 239 233 236 242 246 245 242 237 230 224 219 216 211
270 269 269 272 274 274 274 271 270 273 278 283 285 285 283 281 278 276 275 274 273 272 272 270 266 264 264 263 262 261 260 258 259 262 260 255 256 258 258 261 264 262 256 247 240 246 253 250 248 253 253 245 242 240 239 243 252 259 265 266 255 241 234 235 238 243 244 240 233 227 220 214 210 205
280 278 279 278 273 271 273 275 277 279 279 282 284 284 283 280 277 277 277 276 275 274 273 272 270 269 268 265 262 261 260 258 255 254 253 250 249 253 256 257 260 262 257 247 239 243 249 249 245 245 247 245 237 231 228 230 241 253 256 253 244 235 231 231 231 235 240 234 225 219 214 209 203 197
287 283 283 280 277 279 282 281 283 284 282 281 282 281 279 276 275 278 277 275 277 277 273 271 271 270 269 266 263 261 260 257 252 248 247 244 243 247 251 251 251 254 255 249 242 245 249 250 248 244 242 245 243 229 218 211 217 240 237 235 232 225 220 220 216 218 226 224 217 211 208 205 199 191
288 286 284 282 281 285 288 286 285 283 280 280 279 277 274 271 272 276 277 276 277 276 272 270 269 268 266 264 262 259 257 254 250 247 245 242 241 243 246 248 249 251 253 253 250 253 254 252 251 250 246 244 245 236 219 201 199 223 226 225 225 217 207 202 195 190 200 206 206 204 201 197 192 189
288 286 286 286 285 285 286 285 282 279 280 280 278 275 273 271 272 273 274 273 273 271 268 267 265 263 261 260 258 256 255 253 251 250 248 245 244 244 245 247 249 252 255 254 250 250 251 251 252 254 251 247 244 238 227 209 193 197 213 212 208 200 192 187 180 177 183 190 192 193 192 188 187 188
288 288 289 289 284 283 284 285 284 284 285 284 280 276 274 274 274 274 271 269 268 266 264 262 260 258 257 256 256 255 255 254 252 252 251 250 249 249 249 248 249 252 255 255 251 248 246 248 251 253 257 257 250 238 232 218 185 169 194 198 175 174 177 175 172 170 174 179 181 181 181 180 182 186
288 290 291 289 287 288 291 293 294 293 292 288 284 282 280 278 276 272 268 265 262 260 258 256 255 255 253 253 254 254 253 253 253 252 252 251 249 250 251 250 250 252 252 252 252 250 247 246 246 248 255 261 257 247 240 226 190 167 177 174 157 164 169 166 165 164 166 172 175 174 174 174 177 180
292 295 297 297 298 300 301 301 299 297 295 293 290 287 285 282 276 270 265 261 258 256 255 254 254 255 254 253 253 254 253 253 252 251 251 250 248 249 251 251 252 252 252 250 249 249 250 249 246 244 247 252 256 258 256 240 206 181 176 166 156 164 167 164 163 161 161 166 169 169 171 173 173 173
306 308 307 305 303 302 301 299 296 293 292 291 289 286 282 277 271 266 261 258 257 256 256 256 256 257 258 257 257 256 255 253 251 249 248 248 247 247 248 249 250 249 248 246 244 244 246 247 246 245 243 246 252 257 263 262 229 186 172 162 153 156 164 164 162 160 160 162 163 165 170 172 172 171
309 308 306 302 298 298 299 297 295 293 290 288 287 286 281 275 270 267 263 261 260 260 259 260 260 260 261 260 259 257 254 251 248 245 244 245 245 244 245 248 250 248 245 242 239 238 239 239 241 243 240 242 248 249 256 267 243 174 166 169 163 160 166 166 162 161 161 158 157 160 164 169 170 170
305 303 302 301 300 301 301 301 300 298 295 292 290 288 285 280 276 274 271 267 264 262 262 261 260 260 259 258 256 255 252 250 247 244 242 242 242 241 242 245 249 248 245 242 237 236 235 235 237 238 236 237 242 243 249 254 221 168 165 173 166 159 163 164 161 160 159 156 156 159 160 162 165 165
304 303 304 304 305 306 304 303 303 301 299 297 294 291 288 284 280 278 275 272 268 266 264 262 261 260 258 256 254 252 250 249 246 242 240 239 238 238 237 239 244 245 244 243 239 236 234 232 233 236 237 237 238 240 245 243 207 174 172 171 161 156 161 164 163 161 160 158 157 158 156 154 156 159
306 304 305 306 306 306 305 304 303 302 302 300 297 294 291 286 282 279 276 274 273 271 269 266 263 261 260 258 255 252 250 249 246 243 241 239 236 234 235 237 241 242 242 244 243 239 235 232 231 231 234 238 240 242 246 242 206 171 174 174 163 159 160 165 165 163 163 162 157 151 149 150 155 160
305 305 306 305 305 304 304 304 304 304 303 300 298 296 293 288 284 281 276 274 274 273 271 268 265 263 262 259 257 253 251 250 249 247 244 239 235 234 237 239 240 240 240 242 243 242 239 232 226 223 225 231 234 238 243 242 217 174 165 167 166 163 162 164 166 163 161 160 153 146 144 148 154 158
304 309 306 303 305 305 304 304 305 305 303 300 298 297 294 291 288 283 280 279 279 277 275 271 268 266 263 261 259 256 252 250 248 246 243 238 235 235 237 239 240 240 239 239 240 240 239 232 225 220 219 221 223 225 231 232 218 195 175 161 157 163 164 161 162 163 160 156 150 146 145 147 151 154
310 313 308 303 303 303 303 305 307 306 304 303 300 298 296 293 290 287 286 286 284 280 276 273 269 267 265 263 261 259 255 250 246 243 240 237 235 234 235 236 237 236 235 237 237 234 235 234 229 223 220 221 224 222 211 200 201 201 194 177 160 160 162 158 155 157 158 154 149 145 142 141 144 151
319 316 312 309 306 306 307 307 307 306 305 303 301 298 296 295 293 292 290 288 285 281 278 274 271 268 266 264 262 260 258 252 246 243 239 233 231 231 231 232 233 231 230 233 233 230 230 230 227 223 220 217 220 219 191 166 177 191 198 194 179 163 159 157 154 154 153 149 142 140 141 141 142 148
323 319 317 314 311 311 311 311 310 309 306 303 301 300 299 298 296 294 291 288 286 284 280 277 275 272 270 266 262 260 259 254 248 242 236 229 226 226 227 229 231 230 227 227 228 229 227 224 222 221 217 217 231 230 191 166 165 172 185 194 189 173 161 157 155 152 148 143 137 134 135 137 139 146
326 322 320 318 315 315 314 314 313 311 307 305 303 301 300 300 298 295 293 290 289 288 285 281 278 275 272 267 261 258 257 253 247 240 234 228 224 222 224 227 229 227 225 223 222 223 225 223 221 220 218 223 236 221 171 146 139 147 160 176 186 179 169 162 156 150 144 141 138 133 129 131 134 140
330 327 324 321 319 318 316 316 315 312 308 306 305 304 303 301 298 295 294 293 292 290 287 283 279 277 275 270 263 257 255 250 242 235 231 228 224 222 221 224 226 226 225 222 217 218 223 223 220 220 223 222 211 188 157 133 123 130 138 150 167 172 168 163 159 154 149 147 142 133 126 129 132 135
333 330 326 324 321 319 319 318 316 312 308 306 306 306 305 302 299 298 297 296 294 292 289 286 282 280 279 274 265 257 251 245 238 231 225 223 223 222 219 218 222 224 223 221 221 218 218 219 218 218 216 202 183 169 149 129 129 125 120 125 138 152 158 159 155 151 150 150 146 137 131 134 137 142
336 332 329 327 324 321 320 318 315 312 310 308 307 306 305 304 302 301 299 298 296 294 293 292 289 286 283 279 270 259 249 240 233 228 221 217 218 219 217 214 217 221 220 220 221 218 214 216 213 204 194 184 174 159 133 125 130 126 119 119 121 126 134 139 139 139 141 144 145 142 141 142 145 151
336 333 331 330 327 323 321 319 316 313 311 310 309 308 307 306 304 302 302 301 299 297 297 298 296 294 292 288 275 257 244 235 229 223 218 214 214 217 220 215 209 211 213 207 200 203 204 200 192 184 178 170 158 143 128 124 125 123 121 121 119 118 123 125 126 128 129 130 134 140 142 141 142 145
335 333 331 329 326 323 320 318 316 315 314 314 313 312 310 309 307 305 304 304 302 301 302 303 302 302 301 295 275 250 240 234 227 220 216 214 211 211 214 210 200 201 204 192 175 173 176 173 170 167 158 147 140 135 130 127 125 122 121 120 118 118 120 121 120 117 113 111 119 131 136 138 141 143
Height
833 833 833 832 833 832 832 832 831 831 831 830 830 829 829 828 826 823 820 817 816 816 817 816 816 816 816 816 816 817 817 815 815 816 815 814 814 812 812 812 811 811 811 811 812 812 813 813 814 814 815 816 818 819 821 822 823 824 825 827 828 830 831 832 834 835 837 838 839 839 839 840 841 841
832 832 832 832 832 832 832 831 831 830 830 829 829 828 828 828 827 826 823 820 818 818 817 817 816 815 815 816 816 816 816 814 813 814 814 813 812 810 810 810 809 809 809 809 809 810 811 811 811 811 812 813 814 816 818 819 819 820 821 822 824 826 828 829 830 832 833 835 836 837 837 838 838 839
832 832 832 832 832 832 831 831 831 830 830 829 829 828 827 827 827 826 825 822 819 818 818 817 816 816 815 815 814 814 814 813 812 812 811 811 809 808 808 807 807 807 807 807 807 808 808 808 809 809 809 810 811 812 813 814 815 817 818 819 820 821 823 825 826 828 829 832 833 834 834 835 836 837
832 832 832 832 832 832 831 831 830 830 830 829 828 828 827 826 826 825 824 821 819 818 818 817 816 815 814 814 813 812 812 811 810 809 809 809 807 806 806 805 804 804 804 805 805 805 805 805 806 806 807 807 808 809 810 811 812 813 815 816 817 818 819 821 822 824 825 827 830 831 831 833 834 835
832 832 832 832 832 831 831 831 830 829 829 829 828 827 827 826 825 824 823 820 817 817 817 816 815 814 813 812 811 811 810 809 808 807 807 806 805 805 804 803 802 801 801 801 801 802 802 802 802 803 803 804 805 806 807 808 808 809 810 812 813 814 815 817 818 820 821 824 826 827 828 829 831 833
831 831 831 831 831 831 831 830 830 829 828 828 827 826 826 825 824 824 822 820 817 815 815 814 813 813 812 811 810 809 809 808 807 806 805 804 803 802 801 800 800 799 798 798 798 798 799 799 799 799 800 800 801 802 803 804 805 806 806 807 808 810 811 812 814 815 818 820 822 823 824 825 827 830
829 829 830 830 830 830 830 829 829 828 828 827 826 825 825 824 823 823 822 820 818 816 814 813 812 811 810 809 809 808 807 806 805 804 803 802 801 800 799 798 797 796 795 795 795 795 795 795 795 796 796 797 797 798 799 800 801 801 802 803 804 805 807 808 809 810 813 815 817 819 820 822 823 825
828 828 828 828 828 828 828 828 828 827 827 826 825 824 824 823 822 821 820 819 818 816 813 812 811 810 809 808 807 807 805 804 803 802 801 800 799 798 797 796 795 794 792 792 792 792 792 792 792 792 792 793 793 794 795 795 796 797 797 798 799 801 802 803 804 806 808 811 812 814 816 818 819 821
827 827 827 826 826 826 826 826 826 826 826 825 824 823 822 821 820 819 819 818 816 815 812 811 810 809 808 806 805 805 804 802 801 800 799 798 796 795 794 793 792 791 790 789 789 789 789 788 788 788 789 789 789 790 790 791 791 792 792 793 794 796 797 798 800 802 804 806 807 809 811 813 815 817
825 826 825 825 825 825 824 824 824 824 824 823 823 822 821 820 819 818 817 816 815 813 811 809 808 807 806 804 803 802 802 800 799 798 796 795 794 793 792 791 790 789 787 786 786 786 786 785 785 784 785 785 786 786 786 787 787 788 788 788 789 791 792 794 796 797 799 800 801 804 806 808 811 813
824 824 824 824 824 824 823 823 822 822 822 821 821 820 820 819 818 817 816 814 813 811 809 807 805 804 803 802 800 800 799 798 797 796 794 792 791 791 790 789 788 787 786 785 784 783 783 782 781 781 781 781 782 782 782 782 783 783 784 784 785 786 788 790 791 793 794 795 797 799 801 804 806 808
822 822 822 822 822 822 822 821 821 820 820 819 819 818 818 817 816 815 814 812 811 809 806 804 803 801 800 799 798 797 797 796 794 794 793 791 790 789 788 787 787 785 784 783 781 780 779 779 778 777 777 776 777 778 778 778 778 778 779 779 780 781 783 784 786 788 789 791 793 796 798 799 801 803
820 820 820 820 820 820 819 819 819 818 817 817 816 816 816 815 814 813 812 810 808 806 804 802 800 799 798 796 795 795 794 793 793 792 792 790 789 788 786 785 784 783 782 781 779 778 777 776 775 774 773 773 773 773 773 773 774 774 775 775 776 777 778 779 781 783 785 787 790 792 794 794 795 798
818 818 818 818 818 817 816 816 815 814 814 813 813 813 813 813 812 811 810 808 806 804 802 800 798 796 795 794 794 793 792 792 791 791 790 789 787 786 784 782 781 781 780 778 776 775 774 773 772 771 770 769 769 769 770 769 769 770 771 771 772 772 773 774 775 777 780 782 785 787 788 789 791 793
816 816 816 816 816 815 814 813 812 811 811 810 809 809 809 809 809 809 808 806 805 803 800 798 797 794 793 792 792 791 791 790 789 789 788 786 785 784 782 779 778 778 778 777 774 772 772 771 770 768 767 767 766 766 767 766 766 766 767 767 768 769 769 770 771 772 775 777 779 781 783 784 786 789
815 815 814 814 814 813 812 811 810 809 808 806 806 806 805 805 805 805 805 804 803 802 800 797 795 793 791 790 790 790 789 788 788 787 786 785 783 782 780 778 776 776 776 775 773 771 770 769 768 766 765 764 763 763 763 763 763 763 763 763 764 765 765 766 767 768 770 772 774 776 779 781 782 784
813 813 813 812 811 811 810 809 808 807 806 804 803 802 802 801 800 800 801 801 801 800 798 796 793 792 791 789 788 789 788 788 787 785 784 783 782 780 778 776 775 775 775 774 772 769 768 768 766 763 762 762 761 760 760 760 760 760 759 760 760 761 762 762 763 764 765 767 769 772 775 777 779 780
811 811 811 810 809 809 808 807 806 805 804 803 801 800 799 798 797 796 796 796 796 796 795 793 791 790 790 788 787 788 788 787 786 784 782 781 780 778 776 775 773 773 773 773 771 767 765 766 764 761 760 760 759 758 757 757 757 757 756 757 757 757 758 759 759 760 762 763 766 768 771 774 776 779
809 808 808 807 807 806 805 804 803 802 802 800 799 798 797 795 794 793 792 792 792 791 790 789 788 788 787 786 786 786 786 785 783 782 781 780 778 777 775 773 771 770 770 771 769 764 762 763 761 758 758 757 756 756 754 753 754 754 754 754 754 754 755 756 756 757 758 760 762 765 767 770 773 776
806 805 805 805 804 803 803 802 800 799 799 798 797 795 793 792 791 789 789 788 788 787 786 784 783 783 783 782 782 782 782 781 781 781 779 778 777 775 772 769 767 766 765 766 766 762 759 759 758 755 755 754 753 753 752 751 751 751 751 752 752 751 752 753 753 754 755 757 759 762 764 767 770 773
803 803 802 802 801 800 800 799 798 797 796 796 794 792 791 789 787 785 785 784 783 783 781 780 779 778 778 777 777 778 778 778 780 780 777 776 776 772 768 765 763 762 761 761 761 759 756 755 754 752 751 751 750 750 750 748 747 748 749 750 749 749 750 750 751 752 753 754 757 759 761 764 767 770
801 800 799 798 798 797 797 796 795 794 794 794 792 790 788 786 783 782 782 781 780 779 778 777 776 774 774 774 773 773 774 774 777 776 773 774 774 769 764 763 760 758 756 756 757 755 752 751 751 749 748 747 746 746 747 746 745 746 747 747 746 747 747 747 748 749 750 752 754 757 759 762 765 768
799 798 796 795 794 793 793 793 792 792 792 791 790 788 786 783 781 780 779 778 777 776 774 773 772 771 770 770 769 769 769 769 771 770 769 770 770 765 762 762 759 754 751 752 754 752 748 748 748 746 744 742 740 741 743 743 743 745 745 744 744 744 744 745 746 747 749 750 753 755 758 761 764 767
796 795 794 793 791 790 789 789 788 788 788 788 787 786 783 780 779 778 777 776 774 773 772 770 769 768 767 767 766 765 765 764 765 764 764 765 765 761 759 759 757 752 748 748 750 748 745 745 744 743 742 739 736 736 739 740 742 743 743 742 742 741 742 743 744 745 748 750 752 754 757 759 762 765
794 792 792 791 789 788 786 785 785 785 785 784 783 782 780 778 777 776 775 773 772 771 769 768 767 765 764 763 762 761 760 760 759 759 759 759 759 758 756 755 753 749 746 747 748 746 744 743 742 741 739 736 734 733 735 738 741 742 742 741 740 740 740 741 742 744 747 750 752 754 757 759 762 765
791 790 789 788 787 785 783 782 782 781 781 780 779 777 775 774 774 774 772 771 770 768 766 765 763 761 760 759 758 757 755 755 755 754 754 754 754 753 752 752 750 747 745 746 747 745 744 742 741 740 737 734 732 732 733 736 738 740 741 741 740 739 739 740 741 743 746 749 752 755 758 760 762 764
789 787 786 785 783 781 780 779 778 777 776 775 773 772 771 770 770 770 769 767 765 764 762 760 758 757 756 754 753 752 751 751 751 750 750 750 750 749 748 748 747 745 744 745 744 743 742 741 740 740 737 734 731 730 731 733 735 737 740 740 740 740 740 740 741 742 745 749 752 755 759 762 764 766
786 785 783 781 779 778 776 775 774 772 771 770 768 767 767 766 766 765 764 762 761 759 758 756 754 752 751 749 748 747 747 747 747 746 746 746 746 745 744 743 743 742 742 742 742 741 740 739 738 739 738 735 732 729 728 730 732 735 738 739 739 739 740 741 742 743 745 749 752 755 758 761 765 768
783 781 779 777 775 774 772 771 769 768 767 765 764 763 763 762 761 760 759 757 756 754 752 751 749 747 746 745 744 743 743 743 743 742 742 742 741 741 740 739 739 739 738 739 739 738 737 736 736 737 737 735 732 729 727 728 729 732 734 736 738 739 740 741 742 744 746 749 752 755 757 759 764 768
778 776 775 773 772 771 769 768 767 765 763 762 761 760 759 758 757 755 754 753 751 749 747 746 744 743 742 741 740 740 739 739 738 738 738 737 737 737 737 736 735 734 734 735 735 735 734 734 734 735 735 734 732 731 729 728 728 730 732 733 735 738 739 740 742 744 746 749 752 756 758 760 763 767
776 774 773 771 769 768 766 765 763 761 760 758 757 756 755 753 752 751 750 748 747 745 743 742 740 739 738 737 736 736 735 734 734 734 734 734 733 733 733 732 731 730 730 730 730 731 731 731 732 732 732 732 731 731 731 729 728 728 730 731 732 735 737 739 742 744 746 749 752 756 759 761 763 767
775 773 771 769 767 765 764 762 761 759 757 756 754 753 751 750 749 747 746 744 743 741 739 738 736 735 734 733 733 732 731 730 730 730 730 730 729 730 730 729 728 727 726 726 726 726 727 727 728 729 729 729 729 729 730 729 727 727 729 731 731 733 735 737 740 743 746 749 752 756 759 761 763 766
773 771 769 767 765 764 762 761 759 757 756 754 752 751 749 747 746 744 743 741 739 737 735 734 732 731 730 729 728 728 727 726 725 726 726 725 725 726 726 725 724 724 723 722 722 722 722 723 724 725 726 726 727 727 727 727 726 726 728 729 731 733 735 737 739 742 745 748 751 754 758 760 763 766
772 770 767 766 764 762 761 759 757 756 754 752 750 748 746 745 743 741 740 738 735 734 732 730 729 727 726 725 724 723 722 721 721 721 721 721 721 722 721 721 720 720 720 720 719 719 719 720 721 722 723 723 724 724 724 724 724 725 726 728 729 731 734 737 739 741 744 746 749 752 756 759 763 766
771 769 767 765 763 761 760 758 756 754 752 749 747 745 743 741 740 738 736 734 732 730 728 726 725 723 722 720 719 718 717 716 716 716 716 717 716 716 717 716 716 716 717 717 716 716 716 717 717 718 719 720 720 720 720 721 721 722 724 726 728 730 733 736 738 740 743 746 747 750 754 758 762 766
770 767 765 764 762 760 758 756 754 752 750 747 745 743 740 738 736 734 732 730 729 726 724 723 721 719 718 716 715 713 712 711 711 711 711 711 711 711 712 711 711 712 713 713 713 713 714 714 714 715 715 715 716 716 716 718 719 719 721 724 727 729 732 735 738 740 743 745 747 749 752 757 761 765
768 766 764 763 761 759 756 754 752 750 748 745 743 740 738 735 733 731 729 727 725 723 721 719 717 715 714 712 710 709 707 706 705 705 705 705 706 706 706 706 706 707 708 708 709 710 711 711 711 711 712 712 713 713 714 716 717 718 719 722 725 728 731 734 737 741 743 745 748 750 753 757 761 765
766 764 763 761 759 757 755 752 750 748 745 743 741 738 736 733 730 728 726 723 721 719 716 714 712 710 709 707 706 704 702 701 701 700 700 700 700 700 701 701 701 702 703 704 705 706 707 707 707 708 709 709 709 709 712 715 716 717 718 719 722 726 730 733 736 739 743 746 749 752 755 759 762 765
765 763 761 759 757 755 753 751 749 746 744 741 739 736 733 730 727 725 722 719 717 715 712 710 708 706 704 703 701 699 698 697 696 695 695 695 695 696 696 697 697 698 699 700 701 702 703 703 703 704 706 707 707 708 709 712 714 716 717 718 720 723 728 732 734 738 742 745 748 752 756 760 764 767
764 762 760 758 756 754 752 749 747 745 742 739 736 733 730 727 724 721 719 716 713 711 709 706 704 701 699 698 696 695 693 692 691 691 691 691 691 692 693 693 694 694 695 695 696 697 698 698 699 701 703 705 707 707 708 710 713 715 717 720 721 723 725 729 732 735 740 743 745 749 755 760 764 768
763 761 759 757 755 753 751 748 746 743 740 737 734 731 728 724 721 718 715 713 710 707 704 702 699 697 694 692 691 690 688 687 687 687 687 687 688 688 689 690 691 691 691 692 692 693 694 695 697 700 702 704 706 707 707 709 713 716 718 721 723 725 727 729 731 733 736 740 744 749 754 760 765 769
763 761 759 757 755 752 750 747 744 741 738 735 732 728 725 722 718 715 712 709 706 703 701 698 695 692 690 688 686 685 684 683 683 683 683 684 684 685 686 687 688 688 688 689 689 690 691 693 695 698 700 702 703 704 706 708 712 716 719 722 724 727 730 732 734 735 737 740 743 747 752 757 763 768
762 760 758 756 754 752 749 746 743 740 737 733 730 726 723 719 716 713 709 706 703 700 697 694 691 689 686 683 682 681 680 679 680 680 680 681 681 682 683 684 685 685 686 687 688 689 690 691 693 695 698 700 701 702 705 708 712 715 719 722 725 728 731 734 737 739 741 744 747 749 751 755 760 765
762 760 758 756 753 751 748 745 742 739 735 732 728 725 721 718 714 710 707 704 701 697 694 691 688 685 683 680 678 678 677 677 677 677 678 678 679 680 681 681 682 684 685 686 687 688 689 690 691 693 695 698 699 700 704 708 712 716 719 721 724 728 732 735 738 741 744 748 752 755 756 759 761 764
762 760 758 755 753 750 747 744 741 737 734 730 727 723 720 716 712 708 705 702 698 695 692 688 685 683 680 678 677 676 675 675 675 675 676 676 677 678 679 680 681 682 683 684 685 687 688 690 691 693 695 697 698 700 704 708 712 716 720 723 726 730 734 736 739 742 746 751 756 758 760 762 764 767